TimeMST,TemperatureF,Dew PointF,Humidity,Sea Level PressureIn,VisibilityMPH,Wind Direction,Wind SpeedMPH,Gust SpeedMPH,PrecipitationIn,Events,Conditions,WindDirDegrees,DateUTC
12:56 AM,32.9,29.1,86,30.47,10.0,WSW,4.6,-,N/A,,Overcast,250,2013-03-02 07:56:00
1:56 AM,32.0,30.0,92,30.47,10.0,SSE,5.8,-,N/A,,Overcast,150,2013-03-02 08:56:00
2:56 AM,32.9,30.0,89,30.45,10.0,SSE,6.9,-,N/A,,Overcast,160,2013-03-02 09:56:00
3:56 AM,32.0,29.1,89,30.45,10.0,Calm,Calm,-,N/A,,Overcast,0,2013-03-02 10:56:00
4:09 AM,30.2,28.4,93,30.45,10.0,SE,3.5,-,N/A,,Overcast,130,2013-03-02 11:09:00
5:56 AM,32.0,29.1,89,30.45,10.0,SSE,5.8,-,N/A,,Overcast,160,2013-03-02 12:56:00
6:56 AM,34.0,30.0,85,30.45,10.0,SSE,8.1,-,N/A,,Overcast,160,2013-03-02 13:56:00
7:56 AM,32.0,30.0,92,30.43,10.0,SSE,4.6,-,N/A,,Overcast,160,2013-03-02 14:56:00
8:56 AM,36.0,30.0,79,30.43,10.0,SSE,5.8,-,N/A,,Overcast,160,2013-03-02 15:56:00
10:45 AM,37.4,28.4,70,30.39,10.0,SSW,5.8,-,N/A,,Scattered Clouds,210,2013-03-02 17:45:00
10:56 AM,36.9,28.0,70,30.36,10.0,SSW,4.6,-,N/A,,Partly Cloudy,210,2013-03-02 17:56:00
11:56 AM,41.0,29.1,63,30.32,10.0,SE,3.5,-,N/A,,Partly Cloudy,130,2013-03-02 18:56:00
12:56 PM,38.8,30.0,71,30.30,10.0,NE,6.9,-,N/A,,Clear,50,2013-03-02 19:56:00
1:56 PM,39.9,30.0,68,30.25,10.0,NE,4.6,-,N/A,,Partly Cloudy,40,2013-03-02 20:56:00
2:56 PM,38.8,30.0,71,30.24,10.0,NNW,6.9,-,N/A,,Partly Cloudy,330,2013-03-02 21:56:00
3:56 PM,38.8,30.0,71,30.21,10.0,North,4.6,-,N/A,,Partly Cloudy,360,2013-03-02 22:56:00
4:56 PM,36.0,30.0,79,30.19,10.0,WSW,4.6,-,N/A,,Clear,250,2013-03-02 23:56:00
5:56 PM,34.0,30.0,85,30.16,10.0,Calm,Calm,-,N/A,,Clear,0,2013-03-03 00:56:00
6:56 PM,32.0,29.1,89,30.14,10.0,Calm,Calm,-,N/A,,Clear,0,2013-03-03 01:56:00
7:56 PM,32.9,29.1,86,30.12,10.0,East,5.8,-,N/A,,Clear,90,2013-03-03 02:56:00
8:56 PM,34.0,29.1,82,30.09,10.0,East,3.5,-,N/A,,Clear,90,2013-03-03 03:56:00
9:56 PM,34.9,28.0,76,30.07,10.0,Calm,Calm,-,N/A,,Partly Cloudy,0,2013-03-03 04:56:00
10:56 PM,34.9,27.1,73,30.05,10.0,South,5.8,-,N/A,,Scattered Clouds,170,2013-03-03 05:56:00
11:56 PM,36.0,28.0,73,29.99,10.0,SSE,8.1,-,N/A,,Overcast,160,2013-03-03 06:56:00